Weather History for Alva, OK

Change the Weather History Date:

Wednesday, October 23, 2013

  Actual Average Record
Temperature  
Mean Temperature 54 °F -  
Max Temperature 68 °F 71 °F 93 °F (2012)
Min Temperature 39 °F 47 °F 29 °F (1966)
Degree Days  
Heating Degree Days 12    
Growing Degree Days 4 (Base 50)    
Moisture  
Dew Point 40 °F    
Average Humidity 66    
Maximum Humidity 93    
Minimum Humidity 42    
Precipitation  
Precipitation 0.00 in - - ()
Sea Level Pressure  
Sea Level Pressure 30.10 in    
Wind  
Wind Speed 6 mph (East)    
Max Wind Speed 16 mph    
Max Gust Speed 20 mph    
Visibility 10 miles    
Events      
Averages and records for this station are not official NWS values.
T = Trace of Precipitation, MM = Missing Value Source: NWS Daily Summary

Daily Weather History Graph

Daily Weather History Graph

Search for Another Location

Airport:

Trip Planner

Search our weather history database for the weather conditions in past years. The results will help you decide how hot, cold, wet, or windy it might be!

Date:

Astronomy

Oct. 23, 2013 Rise Set
Actual Time 7:49 AM CDT 6:47 PM CDT
Civil Twilight 7:23 AM CDT 7:13 PM CDT
Nautical Twilight 6:53 AM CDT 7:44 PM CDT
Astronomical Twilight 6:23 AM CDT 8:14 PM CDT
Moon 10:23 PM CDT (10/23) 12:04 PM CDT (10/23)
Length of Visible Light 11h 50m
Length of Day
10h 57m
Waning Gibbous, 79% of the Moon is Illuminated
Oct 23
Waning Gibbous
Oct 26
Last Quarter
Nov 3
New
Nov 9
First Quarter
Nov 17
Full

Hourly Weather History & Observations

Time (CDT) Temp. Windchill Dew Point Humidity Pressure Visibility Wind Dir Wind Speed Gust Speed Precip Events Conditions
12:05 AM 50.0 °F - 39.2 °F 66% 30.11 in 10.0 mi Calm Calm - N/A   Clear
12:25 AM 46.4 °F - 39.2 °F 76% 30.12 in 10.0 mi Calm Calm - N/A   Clear
12:45 AM 48.2 °F - 39.2 °F 71% 30.10 in 10.0 mi East 3.5 mph - N/A   Clear
1:05 AM 50.0 °F - 39.2 °F 66% 30.11 in 10.0 mi ENE 3.5 mph - N/A   Clear
1:25 AM 51.8 °F - 39.2 °F 62% 30.11 in 10.0 mi ENE 5.8 mph - N/A   Clear
1:45 AM 44.6 °F 43.1 °F 39.2 °F 81% 30.11 in 10.0 mi SW 3.5 mph - N/A   Clear
2:05 AM 44.6 °F - 39.2 °F 81% 30.12 in 10.0 mi Calm Calm - N/A   Clear
2:25 AM 48.2 °F - 39.2 °F 71% 30.13 in 10.0 mi Calm Calm - N/A   Clear
2:45 AM 44.6 °F 40.7 °F 39.2 °F 81% 30.13 in 10.0 mi North 6.9 mph - N/A   Clear
3:05 AM 44.6 °F 41.4 °F 39.2 °F 81% 30.13 in 10.0 mi North 5.8 mph - N/A   Clear
3:25 AM 42.8 °F 38.0 °F 39.2 °F 87% 30.13 in 10.0 mi North 8.1 mph - N/A   Clear
3:45 AM 44.6 °F 39.2 °F 39.2 °F 81% 30.13 in 10.0 mi NE 10.4 mph - N/A   Clear
4:05 AM 44.6 °F 39.7 °F 39.2 °F 81% 30.13 in 10.0 mi NE 9.2 mph - N/A   Clear
4:30 AM 42.8 °F 38.6 °F 37.4 °F 81% 30.14 in 10.0 mi NE 6.9 mph - N/A   Clear
4:45 AM 42.8 °F 38.0 °F 37.4 °F 81% 30.14 in 10.0 mi NE 8.1 mph - N/A   Clear
5:10 AM 41.0 °F 35.8 °F 37.4 °F 87% 30.14 in 10.0 mi NE 8.1 mph - N/A   Clear
5:25 AM 41.0 °F 35.2 °F 37.4 °F 87% 30.14 in 10.0 mi NE 9.2 mph - N/A   Clear
5:45 AM 41.0 °F 35.2 °F 37.4 °F 87% 30.14 in 10.0 mi ENE 9.2 mph - N/A   Clear
6:05 AM 41.0 °F 35.2 °F 37.4 °F 87% 30.13 in 10.0 mi ENE 9.2 mph - N/A   Clear
6:30 AM 39.2 °F 35.9 °F 37.4 °F 93% 30.15 in 10.0 mi NE 4.6 mph - N/A   Clear
6:45 AM 39.2 °F 35.0 °F 37.4 °F 93% 30.15 in 10.0 mi NE 5.8 mph - N/A   Clear
7:05 AM 39.2 °F 35.0 °F 37.4 °F 93% 30.15 in 10.0 mi ENE 5.8 mph - N/A   Clear
7:25 AM 39.2 °F 35.0 °F 37.4 °F 93% 30.15 in 10.0 mi ENE 5.8 mph - N/A   Clear
7:45 AM 39.2 °F 35.0 °F 37.4 °F 93% 30.15 in 10.0 mi East 5.8 mph - N/A   Clear
8:05 AM 39.2 °F 35.9 °F 37.4 °F 93% 30.16 in 10.0 mi East 4.6 mph - N/A   Clear
8:25 AM 41.0 °F 38.0 °F 37.4 °F 87% 30.16 in 10.0 mi East 4.6 mph - N/A   Clear
8:45 AM 42.8 °F 39.3 °F 39.2 °F 87% 30.16 in 10.0 mi ESE 5.8 mph - N/A   Clear
9:05 AM 44.6 °F 39.7 °F 39.2 °F 81% 30.16 in 10.0 mi ESE 9.2 mph - N/A   Clear
9:30 AM 46.4 °F 40.4 °F 39.2 °F 76% 30.15 in 10.0 mi ESE 13.8 mph - N/A   Clear
9:45 AM 48.2 °F - 37.4 °F 66% 30.15 in 10.0 mi SE 15.0 mph - N/A   Clear
10:05 AM 48.2 °F - 37.4 °F 66% 30.16 in 10.0 mi SE 12.7 mph - N/A   Clear
10:25 AM 50.0 °F - 37.4 °F 62% 30.16 in 10.0 mi SE 13.8 mph - N/A   Clear
10:45 AM 50.0 °F - 39.2 °F 66% 30.14 in 10.0 mi SE 15.0 mph - N/A   Clear
11:05 AM 53.6 °F - 37.4 °F 54% 30.14 in 10.0 mi SE 12.7 mph - N/A   Clear
11:25 AM 53.6 °F - 39.2 °F 58% 30.13 in 10.0 mi SE 13.8 mph - N/A   Clear
11:45 AM 55.4 °F - 37.4 °F 51% 30.13 in 10.0 mi SSE 15.0 mph 18.4 mph N/A   Clear
12:05 PM 55.4 °F - 37.4 °F 51% 30.12 in 10.0 mi SE 13.8 mph - N/A   Clear
12:30 PM 57.2 °F - 39.2 °F 51% 30.11 in 10.0 mi SSE 11.5 mph 19.6 mph N/A   Clear
12:45 PM 57.2 °F - 39.2 °F 51% 30.10 in 10.0 mi SE 16.1 mph - N/A   Clear
1:10 PM 59.0 °F - 39.2 °F 48% 30.09 in 10.0 mi SSE 12.7 mph - N/A   Clear
1:25 PM 59.0 °F - 39.2 °F 48% 30.08 in 10.0 mi SE 11.5 mph 17.3 mph N/A   Clear
1:45 PM 62.6 °F - 39.2 °F 42% 30.07 in 10.0 mi South 10.4 mph - N/A   Clear
2:05 PM 62.6 °F - 41.0 °F 45% 30.05 in 10.0 mi South 11.5 mph 18.4 mph N/A   Clear
2:25 PM 64.4 °F - 41.0 °F 42% 30.03 in 10.0 mi South 13.8 mph - N/A   Clear
2:45 PM 64.4 °F - 41.0 °F 42% 30.02 in 8.0 mi South 12.7 mph 16.1 mph N/A   Clear
3:05 PM 64.4 °F - 41.0 °F 42% 30.02 in 10.0 mi South 11.5 mph - N/A   Clear
3:25 PM 66.2 °F - 42.8 °F 43% 30.01 in 10.0 mi SSE 8.1 mph - N/A   Clear
3:45 PM 66.2 °F - 42.8 °F 43% 30.02 in 10.0 mi SSW 6.9 mph - N/A   Clear
4:10 PM 68.0 °F - 44.6 °F 43% 30.02 in 10.0 mi Calm Calm - N/A   Clear
4:25 PM 68.0 °F - 44.6 °F 43% 30.03 in 10.0 mi Calm Calm - N/A   Clear
4:45 PM 68.0 °F - 44.6 °F 43% 30.03 in 10.0 mi ENE 3.5 mph - N/A   Clear
5:05 PM 68.0 °F - 44.6 °F 43% 30.03 in 10.0 mi NNE 8.1 mph - N/A   Clear
5:25 PM 68.0 °F - 44.6 °F 43% 30.03 in 10.0 mi NNE 4.6 mph - N/A   Clear
5:45 PM 68.0 °F - 44.6 °F 43% 30.03 in 10.0 mi ENE 6.9 mph - N/A   Clear
6:05 PM 66.2 °F - 44.6 °F 46% 30.03 in 10.0 mi ENE 4.6 mph - N/A   Clear
6:30 PM 64.4 °F - 44.6 °F 49% 30.03 in 10.0 mi NE 5.8 mph - N/A   Clear
6:45 PM 62.6 °F - 44.6 °F 52% 30.04 in 10.0 mi ENE 5.8 mph - N/A   Clear
7:05 PM 60.8 °F - 44.6 °F 55% 30.04 in 10.0 mi NE 4.6 mph - N/A   Clear
7:25 PM 59.0 °F - 44.6 °F 59% 30.05 in 10.0 mi East 5.8 mph - N/A   Clear
7:45 PM 60.8 °F - 44.6 °F 55% 30.06 in 10.0 mi East 5.8 mph - N/A   Clear
8:05 PM 59.0 °F - 44.6 °F 59% 30.06 in 10.0 mi East 5.8 mph - N/A   Clear
8:30 PM 57.2 °F - 44.6 °F 63% 30.07 in 10.0 mi East 4.6 mph - N/A   Clear
8:45 PM 57.2 °F - 42.8 °F 59% 30.08 in 10.0 mi ENE 5.8 mph - N/A   Clear
9:05 PM 55.4 °F - 42.8 °F 63% 30.08 in 10.0 mi NE 4.6 mph - N/A   Clear
9:25 PM 55.4 °F - 44.6 °F 67% 30.09 in 10.0 mi NE 4.6 mph - N/A   Clear
9:45 PM 55.4 °F - 44.6 °F 67% 30.10 in 10.0 mi NNE 3.5 mph - N/A   Clear
10:05 PM 50.0 °F - 41.0 °F 71% 30.10 in 10.0 mi Calm Calm - N/A   Clear
10:25 PM 51.8 °F - 42.8 °F 71% 30.11 in 10.0 mi North 4.6 mph - N/A   Clear
10:45 PM 50.0 °F - 42.8 °F 76% 30.11 in 10.0 mi North 4.6 mph - N/A   Clear
11:05 PM 51.8 °F - 42.8 °F 71% 30.12 in 10.0 mi North 6.9 mph - N/A   Clear
11:25 PM 51.8 °F - 42.8 °F 71% 30.12 in 10.0 mi NNW 6.9 mph - N/A   Clear
11:45 PM 50.0 °F - 41.0 °F 71% 30.12 in 10.0 mi North 6.9 mph - N/A   Clear